{"data":{"norad_id":55976,"intl_designator":"2023-039D","name":"TIANMU-1 06","alt_names":[],"object_type":"PAYLOAD","status":"ACTIVE","operator":null,"country":"PRC","launch_date":"2023-03-22","launch_site_code":"JSC","launch_vehicle":null,"mission":null,"orbit_class":"UNKNOWN","rcs_meters":null,"size_class":null,"mass_kg":null,"dimensions":null,"purposes":["earth_obs"],"wikipedia_slug":null,"has_3d_model":false,"image_url":null,"decayed_at":null,"tle_current":{"epoch":"2026-09-20T04:40:52.047840Z","epoch_age_seconds":40729,"freshness":"FRESH","line1":"1 55976U 23039D   26263.19504685  .00012189  00000+0  21683-3 0  9999","line2":"2 55976  97.5257  81.4127 0003562 111.7582 248.4048 15.50306300195551","mean_motion":15.503063,"eccentricity":0.0003562,"inclination_deg":97.5257,"raan_deg":81.4127,"arg_perigee_deg":111.7582,"mean_anomaly_deg":248.4048,"bstar":0.00021683,"rev_number":19555,"period_min":92.884870557515,"perigee_km":413.41103677426,"apogee_km":418.25105961179,"semimajor_km":6793.968048193,"source":"CELESTRAK","updated_at":"2026-09-20T09:00:33.223072Z"}}}